Вернуться в каталог

COSMOS 2499 DEB

АктивенPO
NORAD 49941·DEBRIS·🇷🇺 Russia

Запущен May 23, 2014 с Plesetsk Cosmodrome

Loading…

Ближайшие Пролёты (ближайшие 24 часа)

TLE

УстаревающийSource: Space-Track

Эпоха: Sep 10, 2026, 14:17 UTC

1 49941U 14028Y   26253.59535502  .00002905  00000-0  91431-2 0  9990
2 49941  82.5595 198.1927 0253222  89.6894 273.3226 12.93321362228425

Отслеживайте COSMOS 2499 DEB в реальном времени с AllMySat

Download on the App Store